Woodward, OK

1:22 PM CDT on March 24, 2017 (GMT -0500)
West Woodward

Weather History for KWWR - April, 2013

Change the Weather History Date:

Thursday, April 18, 2013

  Actual Average (KGAG) Record (KGAG)
Temperature  
Mean Temperature 39 °F -  
Max Temperature 46 °F 72 °F 93 °F (2002)
Min Temperature 32 °F 45 °F 28 °F (1953)
Degree Days  
Heating Degree Days 26    
Moisture  
Dew Point 27 °F    
Average Humidity 68    
Maximum Humidity 93    
Minimum Humidity 39    
Precipitation  
Precipitation 0.00 in - - ()
Sea Level Pressure  
Sea Level Pressure 30.03 in    
Wind  
Wind Speed 22 mph (NW)    
Max Wind Speed 29 mph    
Max Gust Speed 41 mph    
Visibility 10 miles    
Events Rain , Snow    
Averages and records for this station are not official NWS values.
T = Trace of Precipitation, MM = Missing Value Source: NWS Daily Summary

Daily Weather History Graph

Daily Weather History Graph

Search for Another Location

Airport or City:

Trip Planner

Search our weather history database for the weather conditions in past years. The results will help you decide how hot, cold, wet, or windy it might be!

Date:

Astronomy

Apr. 18, 2013 Rise Set
Actual Time 7:00 AM CDT 8:15 PM CDT
Civil Twilight 6:33 AM CDT 8:41 PM CDT
Nautical Twilight 6:01 AM CDT 9:13 PM CDT
Astronomical Twilight 5:28 AM CDT 9:47 PM CDT
Moon 1:15 PM CDT (4/18) 2:28 AM CDT (4/18)
Length of Visible Light 14h 08m
Length of Day
13h 14m
First Quarter, 52% of the Moon is Illuminated
Apr 18
First Quarter
Apr 25
Full
May 2
Last Quarter
May 9
New
May 17
First Quarter

Hourly Weather History & Observations

Time (CDT) Temp. Windchill Dew Point Humidity Pressure Visibility Wind Dir Wind Speed Gust Speed Precip Events Conditions
12:15 AM 37.4 °F 27.2 °F 35.6 °F 93% 29.86 in 2.5 mi NNW 19.6 mph 31.1 mph N/A Rain Light Rain
12:35 AM 37.4 °F 26.6 °F 35.6 °F 93% 29.86 in 3.0 mi NNW 21.9 mph 33.4 mph N/A Snow Light Snow
12:55 AM 37.4 °F 27.2 °F 35.6 °F 93% 29.89 in 5.0 mi NNW 19.6 mph 27.6 mph N/A Rain Light Rain
1:15 AM 37.4 °F 27.2 °F 33.8 °F 87% 29.89 in 4.0 mi NNW 19.6 mph 34.5 mph N/A Rain Light Rain
1:35 AM 35.6 °F 24.0 °F 33.8 °F 93% 29.91 in 5.0 mi NNW 23.0 mph 31.1 mph N/A Rain Light Rain
1:55 AM 35.6 °F 23.7 °F 33.8 °F 93% 29.91 in 4.0 mi NNW 24.2 mph 35.7 mph N/A Rain Light Rain
2:15 AM 35.6 °F 24.2 °F 33.8 °F 93% 29.90 in 10.0 mi NW 21.9 mph 32.2 mph N/A   Overcast
2:35 AM 35.6 °F 24.2 °F 32.0 °F 87% 29.88 in 10.0 mi NNW 21.9 mph 34.5 mph N/A   Overcast
2:55 AM 33.8 °F 20.5 °F 32.0 °F 93% 29.89 in 10.0 mi NNW 27.6 mph 35.7 mph N/A   Overcast
3:15 AM 33.8 °F 21.3 °F 32.0 °F 93% 29.89 in 10.0 mi NW 24.2 mph 34.5 mph N/A   Overcast
3:35 AM 33.8 °F 20.8 °F 32.0 °F 93% 29.90 in 10.0 mi NNW 26.5 mph 38.0 mph N/A   Overcast
3:55 AM 33.8 °F 20.3 °F 32.0 °F 93% 29.90 in 10.0 mi NW 28.8 mph 33.4 mph N/A   Overcast
4:15 AM 33.8 °F 21.3 °F 32.0 °F 93% 29.89 in 10.0 mi NW 24.2 mph 32.2 mph N/A   Overcast
4:35 AM 33.8 °F 21.0 °F 30.2 °F 87% 29.92 in 10.0 mi NW 25.3 mph 29.9 mph N/A   Overcast
4:55 AM 33.8 °F 20.8 °F 30.2 °F 87% 29.92 in 10.0 mi NNW 26.5 mph 41.4 mph N/A   Overcast
5:15 AM 33.8 °F 22.2 °F 30.2 °F 87% 29.93 in 10.0 mi NNW 20.7 mph 28.8 mph N/A   Overcast
5:35 AM 33.8 °F 22.5 °F 30.2 °F 87% 29.94 in 10.0 mi NNW 19.6 mph 28.8 mph N/A   Overcast
6:15 AM 32.0 °F 18.6 °F 28.4 °F 87% 29.95 in 10.0 mi NNW 25.3 mph 32.2 mph N/A   Overcast
6:35 AM 32.0 °F 20.8 °F 28.4 °F 87% 29.96 in 10.0 mi NNW 17.3 mph 29.9 mph N/A   Overcast
6:55 AM 32.0 °F 19.8 °F 28.4 °F 87% 29.99 in 10.0 mi NNW 20.7 mph 31.1 mph N/A   Overcast
7:15 AM 32.0 °F 19.2 °F 28.4 °F 87% 30.00 in 10.0 mi NNW 23.0 mph 29.9 mph N/A   Overcast
7:35 AM 32.0 °F 18.6 °F 28.4 °F 87% 30.02 in 10.0 mi NW 25.3 mph 31.1 mph N/A   Overcast
7:55 AM 32.0 °F 18.9 °F 28.4 °F 87% 30.02 in 10.0 mi NW 24.2 mph 33.4 mph N/A   Overcast
8:15 AM 32.0 °F 18.6 °F 28.4 °F 87% 30.02 in 10.0 mi NW 25.3 mph 35.7 mph N/A   Overcast
8:35 AM 33.8 °F 20.8 °F 28.4 °F 81% 30.03 in 10.0 mi NW 26.5 mph 33.4 mph N/A   Overcast
8:55 AM 33.8 °F 20.8 °F 28.4 °F 81% 30.04 in 10.0 mi NW 26.5 mph 32.2 mph N/A   Mostly Cloudy
9:15 AM 33.8 °F 21.0 °F 28.4 °F 81% 30.04 in 10.0 mi NW 25.3 mph 32.2 mph N/A   Overcast
9:35 AM 35.6 °F 24.2 °F 28.4 °F 75% 30.04 in 10.0 mi NNW 21.9 mph 31.1 mph N/A   Overcast
9:55 AM 33.8 °F 21.3 °F 26.6 °F 75% 30.04 in 10.0 mi NNW 24.2 mph 33.4 mph N/A   Overcast
10:15 AM 35.6 °F 23.7 °F 28.4 °F 75% 30.05 in 10.0 mi NW 24.2 mph 32.2 mph N/A   Overcast
10:35 AM 35.6 °F 23.7 °F 26.6 °F 70% 30.06 in 10.0 mi NW 24.2 mph 34.5 mph N/A   Overcast
10:55 AM 37.4 °F 26.1 °F 26.6 °F 65% 30.06 in 10.0 mi NNW 24.2 mph 33.4 mph N/A   Mostly Cloudy
11:15 AM 41.0 °F 30.0 °F 28.4 °F 61% 30.06 in 10.0 mi NNW 28.8 mph 35.7 mph N/A   Mostly Cloudy
11:35 AM 41.0 °F 30.5 °F 28.4 °F 61% 30.06 in 10.0 mi NNW 26.5 mph 35.7 mph N/A   Mostly Cloudy
11:55 AM 39.2 °F 28.3 °F 26.6 °F 61% 30.06 in 10.0 mi NNW 25.3 mph 33.4 mph N/A   Overcast
12:15 PM 41.0 °F 30.9 °F 26.6 °F 57% 30.06 in 10.0 mi NW 24.2 mph 35.7 mph N/A   Overcast
12:35 PM 41.0 °F 30.7 °F 26.6 °F 57% 30.06 in 10.0 mi NNW 25.3 mph 36.8 mph N/A   Overcast
12:55 PM 41.0 °F 30.0 °F 26.6 °F 57% 30.07 in 10.0 mi NW 28.8 mph 38.0 mph N/A   Overcast
1:15 PM 41.0 °F 30.7 °F 26.6 °F 57% 30.07 in 10.0 mi NW 25.3 mph 34.5 mph N/A   Overcast
1:35 PM 42.8 °F 32.5 °F 26.6 °F 53% 30.07 in 10.0 mi NW 28.8 mph 33.4 mph N/A   Overcast
1:55 PM 42.8 °F 33.3 °F 26.6 °F 53% 30.07 in 10.0 mi NNW 24.2 mph 36.8 mph N/A   Overcast
2:15 PM 42.8 °F 33.3 °F 24.8 °F 49% 30.07 in 10.0 mi NW 24.2 mph 34.5 mph N/A   Overcast
2:35 PM 44.6 °F 35.9 °F 26.6 °F 49% 30.07 in 10.0 mi NW 23.0 mph 34.5 mph N/A   Overcast
2:55 PM 44.6 °F 36.1 °F 24.8 °F 46% 30.07 in 10.0 mi NW 21.9 mph 32.2 mph N/A   Mostly Cloudy
3:15 PM 44.6 °F 36.1 °F 24.8 °F 46% 30.07 in 10.0 mi WNW 21.9 mph 32.2 mph N/A   Mostly Cloudy
3:35 PM 46.4 °F 37.9 °F 24.8 °F 43% 30.07 in 10.0 mi NW 25.3 mph 32.2 mph N/A   Mostly Cloudy
3:55 PM 44.6 °F 35.1 °F 23.0 °F 43% 30.07 in 10.0 mi NW 27.6 mph 34.5 mph N/A   Mostly Cloudy
4:15 PM 44.6 °F 35.1 °F 23.0 °F 43% 30.07 in 10.0 mi NW 27.6 mph 34.5 mph N/A   Scattered Clouds
4:35 PM 44.6 °F 35.3 °F 21.2 °F 39% 30.07 in 10.0 mi NW 26.5 mph 33.4 mph N/A   Scattered Clouds
4:55 PM 44.6 °F 35.3 °F 23.0 °F 43% 30.07 in 10.0 mi NNW 26.5 mph 34.5 mph N/A   Scattered Clouds
5:15 PM 44.6 °F 35.5 °F 21.2 °F 39% 30.08 in 10.0 mi NNW 25.3 mph 31.1 mph N/A   Mostly Cloudy
5:35 PM 44.6 °F 35.9 °F 23.0 °F 43% 30.09 in 10.0 mi NW 23.0 mph 32.2 mph N/A   Mostly Cloudy
5:55 PM 42.8 °F 33.8 °F 21.2 °F 42% 30.09 in 10.0 mi NW 21.9 mph 26.5 mph N/A   Mostly Cloudy
6:15 PM 42.8 °F 34.0 °F 21.2 °F 42% 30.09 in 10.0 mi NW 20.7 mph 25.3 mph N/A   Mostly Cloudy
6:35 PM 44.6 °F 36.4 °F 21.2 °F 39% 30.09 in 10.0 mi NW 20.7 mph 28.8 mph N/A   Scattered Clouds
6:55 PM 42.8 °F 34.0 °F 21.2 °F 42% 30.10 in 10.0 mi NW 20.7 mph 25.3 mph N/A   Scattered Clouds
7:15 PM 42.8 °F 34.0 °F 21.2 °F 42% 30.11 in 10.0 mi NW 20.7 mph 28.8 mph N/A   Scattered Clouds
7:35 PM 42.8 °F 35.1 °F 21.2 °F 42% 30.11 in 10.0 mi NW 16.1 mph - N/A   Mostly Cloudy
7:55 PM 41.0 °F 33.1 °F 21.2 °F 45% 30.12 in 10.0 mi NW 15.0 mph 23.0 mph N/A   Scattered Clouds
8:15 PM 39.2 °F 30.5 °F 21.2 °F 49% 30.13 in 10.0 mi NW 16.1 mph 23.0 mph N/A   Scattered Clouds
8:35 PM 37.4 °F 28.5 °F 21.2 °F 52% 30.14 in 10.0 mi NW 15.0 mph - N/A   Scattered Clouds
9:55 PM 33.8 °F 28.6 °F 23.0 °F 65% 30.17 in 10.0 mi WNW 5.8 mph - N/A   Clear
10:15 PM 32.0 °F 24.8 °F 23.0 °F 69% 30.18 in 10.0 mi West 8.1 mph - N/A   Clear
10:35 PM 32.0 °F 24.8 °F 23.0 °F 69% 30.18 in 10.0 mi West 8.1 mph - N/A   Clear
10:55 PM 32.0 °F 25.6 °F 23.0 °F 69% 30.18 in 10.0 mi West 6.9 mph - N/A   Clear
11:15 PM 32.0 °F 25.6 °F 23.0 °F 69% 30.17 in 10.0 mi West 6.9 mph - N/A   Clear
11:35 PM 32.0 °F 24.8 °F 23.0 °F 69% 30.17 in 10.0 mi West 8.1 mph - N/A   Clear
11:55 PM 32.0 °F 24.2 °F 24.8 °F 75% 30.17 in 10.0 mi West 9.2 mph - N/A   Clear